Location: Gleizolles
(44.4833°N, 6.7667°E)
Time: 09:52:29
(UTC+00:00)

Altair - Pass Details

Date: 02 July 2024
Orbit: 1502 x 1682 km, 47.2° (Epoch: 20 July)

Event Time Altitude Azimuth Distance (km) Brightness Sun altitude
Rises 03:21:14 0° 289° (WNW) 4,657 9.7 -5.3°
Reaches altitude 10° 03:24:14 10° 289° (WNW) 3,687 9.2 -4.9°
Maximum altitude 03:33:34 85° 203° (SSW) 1,566 7.6 -3.6°
Drops below altitude 10° 03:43:15 10° 116° (ESE) 3,811 10.0 -2.2°
Sets 03:46:23 0° 116° (ESE) 4,819 10.5 -1.8°
